Hourly Weather Otrozhnyy

Today, 28 July, Wednesday

Time Temperature Precipitation Wind Pressure Humidity
00:00 +19°C° 0 mm 1 mps 744 mmHg 53%
01:00 +19°C° 0 mm 1 mps 744 mmHg 54%
02:00 +18°C° 0.1 mm 1 mps 744 mmHg 60%
03:00 +18°C° 0.1 mm 1 mps 743 mmHg 66%
04:00 +16°C° 0 mm 1 mps 743 mmHg 73%
05:00 +18°C° 0 mm 1 mps 744 mmHg 71%
06:00 +18°C° 0 mm 2 mps 744 mmHg 68%
07:00 +19°C° 0 mm 2 mps 744 mmHg 66%
08:00 +21°C° 0 mm 3 mps 744 mmHg 59%
09:00 +22°C° 0 mm 4 mps 744 mmHg 51%
10:00 +23°C° 0 mm 5 mps 744 mmHg 47%
11:00 +25°C° 0 mm 5 mps 744 mmHg 42%
12:00 +25°C° 0 mm 5 mps 744 mmHg 38%
13:00 +26°C° 0 mm 5 mps 743 mmHg 34%
14:00 +26°C° 0 mm 5 mps 743 mmHg 32%
15:00 +26°C° 0 mm 5 mps 743 mmHg 30%
16:00 +26°C° 0 mm 5 mps 743 mmHg 28%
17:00 +25°C° 0 mm 5 mps 743 mmHg 29%
18:00 +23°C° 0 mm 4 mps 743 mmHg 30%
19:00 +24°C° 0 mm 3 mps 744 mmHg 31%
20:00 +21°C° 0 mm 3 mps 744 mmHg 34%
21:00 +19°C° 0 mm 2 mps 744 mmHg 38%
22:00 +17°C° 0 mm 2 mps 744 mmHg 42%
23:00 +16°C° 0 mm 2 mps 744 mmHg 43%

Tomorrow, 29 July, Thursday

Time Temperature Precipitation Wind Pressure Humidity
00:00 +15°C° 0 mm 1 mps 744 mmHg 45%
01:00 +15°C° 0 mm 1 mps 744 mmHg 47%
02:00 +14°C° 0 mm 1 mps 744 mmHg 47%
03:00 +14°C° 0 mm 1 mps 744 mmHg 48%
04:00 +14°C° 0 mm 1 mps 744 mmHg 49%
05:00 +15°C° 0 mm 1 mps 744 mmHg 46%
06:00 +18°C° 0 mm 1 mps 744 mmHg 43%
07:00 +19°C° 0 mm 1 mps 745 mmHg 40%
08:00 +20°C° 0 mm 2 mps 745 mmHg 36%
09:00 +22°C° 0 mm 3 mps 744 mmHg 32%
10:00 +25°C° 0 mm 3 mps 744 mmHg 29%
11:00 +26°C° 0 mm 3 mps 744 mmHg 27%
12:00 +27°C° 0 mm 4 mps 744 mmHg 26%
13:00 +29°C° 0 mm 4 mps 743 mmHg 25%
14:00 +29°C° 0 mm 4 mps 743 mmHg 24%
15:00 +30°C° 0 mm 4 mps 743 mmHg 23%
16:00 +30°C° 0 mm 4 mps 742 mmHg 22%
17:00 +27°C° 0.1 mm 4 mps 742 mmHg 40%
18:00 +23°C° 0.1 mm 4 mps 743 mmHg 57%
19:00 +20°C° 0.1 mm 4 mps 743 mmHg 74%
20:00 +20°C° 0 mm 4 mps 742 mmHg 74%
21:00 +20°C° 0 mm 3 mps 742 mmHg 73%
22:00 +20°C° 0 mm 2 mps 742 mmHg 73%
23:00 +20°C° 0 mm 3 mps 742 mmHg 70%

Day after tomorrow, 30 July, Friday

Time Temperature Precipitation Wind Pressure Humidity
00:00 +20°C° 0 mm 3 mps 741 mmHg 67%
01:00 +21°C° 0 mm 3 mps 741 mmHg 65%
02:00 +21°C° 0 mm 4 mps 741 mmHg 63%
03:00 +21°C° 0 mm 5 mps 741 mmHg 61%
04:00 +21°C° 0 mm 5 mps 740 mmHg 59%
05:00 +22°C° 0.1 mm 5 mps 740 mmHg 56%
06:00 +22°C° 0.1 mm 5 mps 740 mmHg 53%
07:00 +23°C° 0.1 mm 5 mps 740 mmHg 50%
08:00 +26°C° 0 mm 5 mps 740 mmHg 46%
09:00 +27°C° 0 mm 6 mps 740 mmHg 42%
10:00 +29°C° 0 mm 6 mps 740 mmHg 39%
11:00 +32°C° 0 mm 7 mps 740 mmHg 36%
12:00 +33°C° 0 mm 7 mps 740 mmHg 33%
13:00 +34°C° 0 mm 7 mps 740 mmHg 31%
14:00 +34°C° 0 mm 7 mps 739 mmHg 31%
15:00 +34°C° 0 mm 7 mps 739 mmHg 32%
16:00 +34°C° 0 mm 7 mps 739 mmHg 32%
17:00 +33°C° 0 mm 6 mps 739 mmHg 35%
18:00 +32°C° 0 mm 5 mps 739 mmHg 38%
19:00 +30°C° 0 mm 4 mps 740 mmHg 40%
20:00 +28°C° 0 mm 3 mps 740 mmHg 45%
21:00 +27°C° 0 mm 2 mps 740 mmHg 49%
22:00 +25°C° 0 mm 1 mps 740 mmHg 53%
23:00 +25°C° 0 mm 1 mps 740 mmHg 53%

31 July, Saturday

Time Temperature Precipitation Wind Pressure Humidity
00:00 +25°C° 0 mm 1 mps 740 mmHg 54%
01:00 +24°C° 0 mm 1 mps 740 mmHg 54%
02:00 +24°C° 0 mm 1 mps 740 mmHg 56%
03:00 +23°C° 0 mm 1 mps 740 mmHg 59%
04:00 +23°C° 0 mm 2 mps 740 mmHg 61%
05:00 +24°C° 0 mm 2 mps 740 mmHg 58%
06:00 +25°C° 0 mm 2 mps 741 mmHg 55%
07:00 +26°C° 0 mm 2 mps 741 mmHg 52%
08:00 +28°C° 0 mm 3 mps 741 mmHg 46%
09:00 +30°C° 0 mm 4 mps 741 mmHg 41%
10:00 +33°C° 0 mm 5 mps 741 mmHg 36%
11:00 +34°C° 0 mm 6 mps 740 mmHg 33%
12:00 +35°C° 0 mm 6 mps 740 mmHg 30%
13:00 +38°C° 0 mm 7 mps 740 mmHg 27%
14:00 +33°C° 0.2 mm 7 mps 740 mmHg 39%
15:00 +29°C° 0.2 mm 7 mps 740 mmHg 50%
16:00 +26°C° 0.2 mm 6 mps 740 mmHg 62%
17:00 +26°C° 0.1 mm 5 mps 740 mmHg 60%
18:00 +27°C° 0.1 mm 4 mps 740 mmHg 59%
19:00 +27°C° 0.1 mm 2 mps 740 mmHg 57%
20:00 +26°C° 0.1 mm 2 mps 740 mmHg 60%
21:00 +25°C° 0.1 mm 2 mps 740 mmHg 63%
22:00 +24°C° 0.1 mm 2 mps 741 mmHg 66%
23:00 +23°C° 0.1 mm 1 mps 741 mmHg 67%

1 August, Sunday

Time Temperature Precipitation Wind Pressure Humidity
00:00 +23°C° 0.1 mm 1 mps 741 mmHg 68%
01:00 +23°C° 0.1 mm 1 mps 741 mmHg 69%
02:00 +23°C° 0 mm 1 mps 741 mmHg 73%
03:00 +21°C° 0 mm 2 mps 741 mmHg 78%
04:00 +20°C° 0 mm 2 mps 741 mmHg 82%
05:00 +21°C° 0 mm 3 mps 742 mmHg 79%
06:00 +22°C° 0 mm 3 mps 742 mmHg 76%
07:00 +24°C° 0 mm 3 mps 743 mmHg 74%
08:00 +26°C° 0 mm 3 mps 743 mmHg 63%
09:00 +28°C° 0 mm 4 mps 743 mmHg 52%
10:00 +30°C° 0 mm 4 mps 743 mmHg 42%
11:00 +32°C° 0 mm 4 mps 743 mmHg 37%
12:00 +33°C° 0 mm 4 mps 743 mmHg 33%
13:00 +34°C° 0 mm 5 mps 743 mmHg 28%
14:00 +34°C° 0 mm 5 mps 743 mmHg 27%
15:00 +34°C° 0 mm 4 mps 743 mmHg 25%
16:00 +34°C° 0 mm 4 mps 743 mmHg 24%
17:00 +34°C° 0 mm 3 mps 743 mmHg 27%
18:00 +32°C° 0 mm 2 mps 743 mmHg 29%
19:00 +31°C° 0 mm 1 mps 743 mmHg 32%
20:00 +29°C° 0 mm 1 mps 743 mmHg 34%
21:00 +27°C° 0 mm 1 mps 743 mmHg 37%
22:00 +26°C° 0 mm 1 mps 743 mmHg 39%
23:00 +25°C° 0 mm 1 mps 743 mmHg 41%

2 August, Monday

Time Temperature Precipitation Wind Pressure Humidity
00:00 +25°C° 0 mm 1 mps 743 mmHg 42%
01:00 +24°C° 0 mm 1 mps 743 mmHg 43%
02:00 +24°C° 0 mm 1 mps 743 mmHg 44%
03:00 +23°C° 0 mm 1 mps 743 mmHg 45%
04:00 +23°C° 0 mm 1 mps 743 mmHg 46%
05:00 +24°C° 0 mm 1 mps 744 mmHg 44%
06:00 +25°C° 0 mm 1 mps 744 mmHg 42%
07:00 +26°C° 0 mm 1 mps 744 mmHg 39%
08:00 +29°C° 0 mm 2 mps 744 mmHg 35%
09:00 +31°C° 0 mm 3 mps 744 mmHg 31%
10:00 +34°C° 0 mm 3 mps 744 mmHg 26%
11:00 +35°C° 0 mm 3 mps 744 mmHg 24%
12:00 +36°C° 0 mm 3 mps 744 mmHg 22%
13:00 +37°C° 0 mm 3 mps 744 mmHg 20%
14:00 +37°C° 0 mm 3 mps 743 mmHg 19%
15:00 +38°C° 0 mm 3 mps 743 mmHg 18%
16:00 +38°C° 0 mm 3 mps 743 mmHg 17%
17:00 +37°C° 0 mm 2 mps 743 mmHg 19%
18:00 +36°C° 0 mm 2 mps 743 mmHg 21%
19:00 +35°C° 0 mm 2 mps 743 mmHg 23%
20:00 +31°C° 0 mm 2 mps 743 mmHg 29%
21:00 +29°C° 0 mm 3 mps 743 mmHg 35%
22:00 +27°C° 0 mm 3 mps 743 mmHg 42%
23:00 +26°C° 0 mm 2 mps 743 mmHg 44%
Show more